Regional Weather Roundup
Issued by NWS

Home | Current Version | Previous Version | Text Only | Print | Product List | Glossary Off
Versions: 1 2 3 4 5 6 7 8 9 10 11 12 13 14 15 16 17 18 19 20 21 22 23 24 25 26 27 28 29 30 31 32 33 34 35 36 37 38 39 40 41 42 43 44 45 46 47 48 49 50

317
ASUS43 KTOP 291059
RWRKS

WEATHER ROUNDUP FOR KANSAS
NATIONAL WEATHER SERVICE GOODLAND KS
600 AM CDT FRI APR 29 2016

NOTE:  "FAIR" INDICATES FEW OR NO CLOUDS BELOW 12,000 FEET WITH NO
SIGNIFICANT WEATHER AND/OR OBSTRUCTIONS TO VISIBILITY.

KSZ001>006-013>018-027>032-041>047-291200-
NORTHWEST KANSAS

CITY           SKY/WX    TMP DP  RH WIND       PRES   REMARKS
GOODLAND       CLOUDY    39  38  96 NE12      30.00F WCI  32
HAYS           CLOUDY    45  37  76 NE20      30.00F
HILL CITY      LGT RAIN  45  43  93 NE13      30.03F
RUSSELL        RAIN      45  43  93 N10       30.04R
$$

KSZ061>065-074>080-084>089-291200-
SOUTHWEST KANSAS

CITY           SKY/WX    TMP DP  RH WIND       PRES   REMARKS
DODGE CITY     RAIN      43  42  97 E25G33    29.94F FOG
ELKHART          N/A     43  41  93 NE15        N/A
GARDEN CITY    CLOUDY    43  41  93 NE28G35   29.90F
GREAT BEND     CLOUDY    46  39  76 N14       30.04R
LIBERAL        CLOUDY    46  41  81 E21G28    29.88F
$$

KSZ066>073-081>083-090>101-291200-
SOUTHEAST KANSAS

CITY           SKY/WX    TMP DP  RH WIND       PRES   REMARKS
CHANUTE        PTCLDY    51  44  77 NE10      29.97S
COFFEYVILLE    CLOUDY    53  47  79 NE15      29.93F
HUTCHINSON     CLOUDY    49  46  90 NE17G25   29.93F
MEDICINE LODGE   N/A     50  48  93 N17G25    29.89R
NEWTON         CLOUDY    48  39  71 NE14      29.95F
PARSONS        CLOUDY    52  47  83 N7        29.96S
WICHITA INTL   CLOUDY    52  46  80 NE24      29.89F
WICHITA JABRA  CLOUDY    50  46  86 NE18G25   29.89F
WINFIELD       CLOUDY    52  45  77 E21G30    29.86F
$$

KSZ007>012-019>026-033>040-048>060-102>105-291200-
NORTHEAST KANSAS

CITY           SKY/WX    TMP DP  RH WIND       PRES   REMARKS
CONCORDIA      CLOUDY    45  38  76 N12       30.03F
EMPORIA        CLOUDY    48  44  86 NE14      29.98F
LAWRENCE       CLOUDY    47  44  90 N8        30.05R
MANHATTAN      CLOUDY    49  41  74 NE10      30.04F
OLATHE IND     PTCLDY    49  45  86 N9        30.04R
OLATHE EXE     PTCLDY    48  43  82 NE10      30.02S
SALINA         LGT RAIN  49  44  83 NE15G23   30.02F
TOPEKA BILLARD CLOUDY    49  45  86 NE8       30.05S
TOPEKA FORBES  MOCLDY    49  45  86 NE8       30.03S
$$




USA.gov is the U.S. government's official web portal to all federal, state and local government web resources and services.